Wind_Speed
8 8 7 7 6 6 6 5 4 4 4 4 4 4 3 4 5 5 6 7 7 7 7 8 8 8 8 8 8 8 7 7 7 7 7 7 7 7 7 6 7 6 7
8 8 7 7 7 7 7 6 6 5 4 4 4 3 3 4 5 5 6 6 6 7 7 7 8 8 8 8 8 7 7 7 6 7 7 7 7 7 6 6 6 6 7
8 7 7 7 7 7 7 6 5 5 4 4 3 3 3 4 4 5 6 6 6 6 6 7 7 8 8 7 7 7 7 7 7 7 7 7 7 7 7 6 6 6 6
8 7 7 7 7 7 6 6 5 5 4 4 3 3 3 3 4 4 4 5 5 6 6 6 7 7 7 7 7 7 7 7 7 7 7 7 7 6 7 6 6 6 6
9 8 7 6 6 6 5 5 4 4 4 3 3 3 3 3 3 4 4 5 5 5 6 6 6 7 7 7 7 7 7 7 7 7 7 6 6 6 6 6 5 5 5
10 9 8 7 6 5 5 5 4 4 3 3 3 3 3 3 3 4 5 5 5 5 5 5 6 6 6 7 7 6 6 6 6 6 6 6 6 6 6 5 5 6 5
11 10 8 8 7 6 5 5 4 4 3 3 3 3 3 3 3 4 4 5 5 5 5 5 5 5 5 6 6 6 5 5 5 6 5 5 5 6 5 5 5 5 5
11 10 10 9 8 7 6 5 4 4 3 3 3 3 3 3 4 4 4 4 4 4 4 5 5 5 5 5 5 5 4 4 5 5 4 5 5 5 5 5 4 4 4
12 11 10 9 8 7 6 6 5 4 3 3 2 3 3 3 3 4 4 4 5 5 5 4 5 5 5 5 5 5 4 4 5 5 5 4 4 4 4 4 4 4 4
12 11 11 10 9 8 7 6 5 4 3 3 3 3 3 3 3 4 5 5 5 5 5 4 4 4 5 5 4 4 4 4 4 4 4 4 4 4 3 3 3 3 3
13 12 11 11 10 8 7 6 6 4 3 3 3 3 2 3 3 4 5 5 5 5 4 4 4 4 5 5 5 5 4 4 4 4 3 3 3 3 2 2 2 2 2
14 12 11 11 10 9 8 7 6 5 4 3 2 2 2 2 3 4 4 4 5 5 4 4 4 4 4 4 4 4 4 4 3 3 2 2 2 2 2 2 2 2 1
15 13 12 11 11 9 9 8 6 5 4 3 2 2 2 2 3 4 4 4 4 4 3 4 4 4 3 3 3 3 3 3 3 2 2 2 2 2 1 1 1 1 1
15 14 12 11 10 9 9 8 7 6 5 3 3 2 2 2 3 3 3 2 2 2 2 2 3 3 2 2 2 2 2 2 1 1 1 1 1 1 1 1 0 0 0
16 15 13 12 11 11 10 9 8 7 6 4 3 2 2 3 3 3 2 2 2 1 1 2 2 2 1 2 2 2 1 1 1 0 0 0 1 0 0 1 1 1 2
17 16 14 13 12 12 11 10 7 6 6 5 3 2 2 2 2 2 2 2 1 1 1 1 1 1 1 1 1 2 2 1 1 1 1 1 1 1 1 2 2 3 3
17 17 15 14 13 12 12 10 8 6 6 5 4 3 2 2 2 2 1 1 1 1 1 1 1 1 1 2 2 2 2 1 2 2 2 2 2 2 2 3 3 4 4
18 17 16 14 13 13 12 11 9 7 6 5 4 3 2 2 1 1 1 1 1 0 0 0 1 1 2 2 2 3 3 3 3 3 4 4 4 5 5 5 5 5 5
18 17 16 14 13 13 12 11 10 8 7 6 5 4 3 2 2 1 1 1 1 0 1 1 1 1 2 2 3 3 3 4 4 5 5 6 6 6 7 7 6 7 7
17 17 17 15 14 13 12 11 10 8 7 6 6 4 4 3 2 1 1 1 0 1 1 2 2 2 2 3 4 4 5 6 7 7 7 7 7 7 8 8 8 9 8
18 17 17 16 14 13 13 12 11 10 9 8 7 5 4 3 2 1 1 1 1 1 2 2 3 3 3 4 5 6 6 7 8 8 8 8 8 8 9 10 11 11 11
18 17 17 16 15 14 13 13 12 10 10 9 8 7 5 4 3 2 2 1 1 2 2 3 4 4 5 5 6 6 7 7 7 8 9 9 9 9 10 10 11 11 12
18 17 16 15 14 14 13 13 12 11 10 9 8 7 6 4 3 2 2 2 2 2 3 3 3 4 4 5 6 6 6 7 7 8 9 9 10 11 11 11 11 12 13
17 17 16 16 15 14 13 13 13 12 11 10 9 8 8 6 4 3 3 2 2 3 4 4 4 4 5 5 6 6 6 6 7 8 8 10 11 12 12 13 13 13 14
17 17 16 16 15 14 13 12 12 12 11 11 10 9 9 7 6 5 4 3 3 4 4 5 5 5 5 6 6 6 7 7 8 8 9 10 11 12 12 13 14 15 16
16 16 16 15 15 14 13 12 12 11 11 10 10 10 10 9 7 6 5 4 4 5 6 6 7 7 7 7 7 8 8 8 9 9 10 10 11 12 13 14 15 16 17
Wind_Direction
64 65 62 58 58 56 51 52 53 49 50 55 61 67 77 88 97 108 114 112 112 109 108 109 115 113 114 116 114 111 110 117 110 107 111 112 112 109 108 108 109 110 110
63 65 64 64 61 57 57 55 54 53 53 56 62 71 85 97 102 108 113 112 111 112 116 117 115 115 114 112 111 107 109 109 109 111 117 115 112 110 109 110 113 115 111
60 62 64 66 62 59 57 58 57 58 58 55 59 72 90 102 109 112 111 111 111 111 116 116 115 116 113 109 109 112 111 109 109 111 115 115 111 109 107 107 108 109 111
58 58 59 61 61 61 60 61 58 58 58 54 55 66 90 103 112 114 113 115 117 116 115 115 116 116 115 111 110 113 113 110 112 112 109 112 113 109 108 107 109 113 114
57 55 55 55 57 58 59 61 58 56 56 57 64 69 83 99 109 118 119 118 119 117 115 112 111 111 113 110 112 116 115 115 117 115 111 105 110 112 112 112 114 119 118
57 54 53 52 54 55 54 55 54 57 60 65 68 68 79 96 106 113 121 120 115 114 113 111 111 111 113 113 116 116 113 114 114 115 112 108 109 113 111 114 114 114 114
56 55 54 52 51 50 48 48 54 61 66 70 72 72 76 85 101 109 115 113 114 117 115 115 116 117 117 119 121 119 114 112 114 115 115 113 111 112 108 106 106 110 109
54 55 56 54 53 51 49 52 59 64 72 74 75 77 80 89 96 104 108 114 116 118 120 118 122 120 124 122 122 120 113 106 116 117 119 116 113 111 108 102 99 106 102
52 53 53 52 52 51 51 56 58 60 68 81 85 90 93 95 100 103 105 115 117 115 115 116 122 121 123 123 123 117 107 104 110 113 114 113 117 118 112 101 97 100 91
51 52 51 48 49 50 51 53 55 59 67 81 88 93 100 100 111 114 115 116 113 112 113 115 117 118 120 117 114 116 116 112 112 114 112 111 115 119 116 108 96 100 96
51 51 48 48 49 48 48 51 51 53 63 75 88 93 104 106 111 118 120 120 116 115 113 114 115 116 116 109 110 112 115 113 109 112 116 118 120 121 121 119 105 108 97
49 49 49 48 49 45 43 49 47 49 58 72 90 104 109 113 115 116 120 122 122 118 117 118 118 118 117 113 113 112 115 113 109 111 114 124 125 119 121 123 112 109 93
48 48 47 47 46 42 40 43 44 48 53 64 80 90 101 110 118 119 116 118 124 123 126 125 125 126 123 112 126 124 118 114 108 102 94 112 116 115 120 116 117 107 95
47 48 49 49 46 42 39 41 42 47 51 56 67 86 98 114 128 134 130 114 115 118 121 120 120 135 129 121 140 138 132 129 116 98 113 114 113 116 127 127 160 281 232
42 44 45 45 46 43 39 40 42 46 51 55 70 95 104 123 136 141 131 127 118 102 98 119 140 143 158 153 160 154 165 156 132 174 214 136 128 141 219 263 288 281 268
40 40 42 45 46 43 42 45 48 49 56 62 79 90 95 118 145 140 138 133 136 123 154 183 166 164 184 191 193 199 209 200 202 226 248 241 229 262 291 285 287 282 278
40 40 39 40 42 41 41 45 51 55 58 66 75 80 80 98 143 151 144 153 168 163 175 188 185 199 215 225 237 231 237 241 249 252 253 256 261 272 281 283 281 286 282
39 38 37 37 39 41 41 42 49 48 51 61 68 75 73 83 112 160 149 153 159 172 240 225 250 258 258 260 261 253 252 257 261 254 253 258 269 275 277 277 277 283 282
37 37 39 38 38 39 41 42 47 52 52 54 52 57 68 82 89 110 138 143 155 218 263 280 290 283 277 273 269 263 258 260 265 262 256 261 269 276 280 280 280 283 283
36 36 39 40 38 38 39 40 43 46 45 47 44 42 48 59 57 53 65 70 220 243 246 259 275 283 285 287 283 273 268 266 266 267 264 267 271 276 282 279 282 284 282
37 39 40 39 40 41 41 41 43 44 42 39 33 29 31 32 24 9 356 333 295 271 263 265 271 280 284 291 289 282 276 271 270 267 266 270 273 275 278 279 282 283 280
39 39 37 38 41 42 43 43 42 42 39 35 30 30 26 23 14 358 342 318 309 290 278 283 280 283 285 288 293 289 278 278 277 270 264 267 271 274 281 281 284 286 284
37 37 36 36 39 40 41 41 40 37 35 32 30 22 15 10 7 4 347 319 296 284 280 285 283 285 288 288 292 289 287 282 282 280 271 269 270 272 276 282 285 285 283
35 35 34 36 38 38 39 40 39 37 34 32 29 24 18 16 8 353 343 322 297 281 275 282 285 292 293 291 294 294 296 294 286 287 285 277 276 274 273 278 282 285 282
32 33 34 35 36 37 38 39 38 36 33 30 27 21 14 12 7 355 346 331 305 291 284 281 280 285 287 289 293 294 295 296 294 293 293 287 284 284 283 282 283 287 287
29 31 33 33 34 34 35 34 33 31 28 25 21 16 9 9 5 356 346 328 308 297 293 286 282 284 284 288 291 292 293 294 296 295 293 291 290 290 292 291 287 288 287
Height
5892 5891 5891 5891 5890 5890 5890 5890 5890 5890 5889 5889 5889 5889 5889 5888 5888 5888 5888 5887 5887 5887 5887 5887 5887 5887 5888 5888 5888 5888 5889 5889 5889 5889 5889 5889 5889 5889 5889 5889 5889 5889 5890
5893 5892 5892 5892 5891 5891 5891 5891 5891 5891 5890 5890 5890 5890 5890 5890 5890 5889 5889 5889 5889 5889 5889 5889 5889 5889 5889 5889 5889 5890 5890 5890 5890 5889 5890 5890 5890 5890 5890 5890 5890 5890 5890
5893 5893 5893 5892 5892 5892 5892 5892 5892 5891 5891 5891 5891 5891 5891 5891 5890 5890 5890 5890 5890 5890 5890 5890 5890 5890 5891 5891 5890 5891 5891 5890 5890 5890 5890 5890 5890 5890 5890 5890 5890 5891 5891
5894 5894 5894 5893 5893 5893 5893 5892 5892 5892 5892 5892 5892 5892 5892 5891 5891 5891 5891 5891 5891 5891 5891 5891 5891 5891 5892 5891 5891 5892 5892 5891 5891 5891 5891 5891 5891 5891 5891 5891 5891 5891 5891
5896 5895 5895 5894 5894 5893 5893 5893 5893 5893 5893 5893 5893 5892 5892 5892 5892 5892 5892 5892 5892 5892 5892 5892 5892 5892 5892 5892 5893 5893 5893 5892 5892 5892 5892 5892 5892 5892 5892 5892 5892 5892 5892
5897 5896 5896 5895 5895 5894 5894 5894 5893 5893 5893 5893 5893 5893 5893 5893 5893 5892 5892 5892 5893 5893 5893 5893 5893 5893 5893 5894 5894 5894 5894 5893 5893 5893 5893 5893 5893 5893 5893 5893 5893 5892 5892
5898 5898 5897 5896 5895 5895 5894 5894 5894 5894 5894 5894 5894 5894 5893 5893 5893 5893 5893 5893 5894 5894 5894 5894 5894 5894 5895 5895 5895 5895 5895 5894 5894 5894 5894 5894 5894 5894 5894 5894 5893 5893 5893
5900 5899 5898 5897 5896 5895 5895 5895 5894 5894 5894 5894 5894 5894 5894 5894 5894 5894 5894 5894 5894 5895 5895 5895 5895 5895 5896 5895 5895 5895 5895 5895 5895 5895 5895 5895 5895 5895 5895 5894 5894 5894 5894
5901 5900 5899 5898 5897 5896 5896 5895 5895 5895 5895 5895 5895 5894 5894 5894 5894 5894 5894 5895 5895 5895 5895 5895 5896 5896 5896 5896 5896 5896 5896 5896 5895 5896 5895 5895 5895 5895 5895 5895 5895 5895 5895
5902 5901 5900 5899 5898 5897 5896 5896 5895 5895 5895 5895 5895 5895 5895 5895 5895 5895 5895 5895 5896 5896 5896 5896 5896 5896 5897 5897 5897 5897 5897 5897 5896 5896 5896 5896 5896 5896 5896 5895 5895 5895 5895
5903 5902 5901 5900 5899 5898 5897 5896 5896 5895 5895 5895 5895 5895 5895 5895 5895 5895 5896 5896 5896 5896 5897 5897 5897 5897 5897 5897 5897 5897 5897 5897 5897 5897 5896 5896 5896 5896 5896 5896 5896 5895 5895
5905 5903 5902 5901 5899 5898 5898 5897 5896 5896 5895 5895 5895 5895 5895 5895 5896 5896 5896 5897 5897 5897 5897 5897 5897 5897 5898 5898 5898 5898 5897 5898 5897 5897 5897 5897 5897 5896 5896 5896 5896 5896 5895
5906 5905 5903 5902 5900 5899 5898 5898 5897 5896 5896 5896 5895 5895 5895 5896 5896 5897 5897 5897 5897 5897 5897 5898 5898 5898 5898 5897 5898 5898 5898 5898 5898 5898 5898 5897 5897 5897 5897 5896 5896 5896 5896
5908 5906 5905 5904 5902 5900 5899 5898 5897 5897 5896 5896 5896 5896 5896 5896 5897 5897 5897 5897 5898 5898 5898 5897 5898 5898 5898 5898 5898 5898 5898 5898 5898 5898 5898 5897 5897 5897 5897 5897 5896 5896 5896
5909 5908 5906 5905 5903 5901 5900 5898 5897 5897 5897 5896 5896 5897 5897 5897 5897 5897 5897 5897 5897 5898 5898 5898 5898 5898 5898 5898 5898 5898 5898 5898 5898 5898 5898 5897 5897 5897 5896 5896 5896 5896 5895
5911 5909 5907 5905 5904 5902 5901 5899 5898 5897 5897 5897 5897 5897 5897 5897 5897 5897 5897 5897 5897 5898 5898 5898 5898 5898 5898 5898 5898 5898 5898 5898 5898 5898 5897 5897 5897 5896 5896 5896 5896 5895 5895
5912 5910 5908 5906 5904 5903 5902 5900 5899 5898 5898 5897 5897 5897 5897 5897 5898 5898 5897 5897 5897 5897 5898 5898 5898 5898 5898 5898 5898 5898 5898 5897 5897 5897 5897 5896 5896 5896 5896 5895 5895 5894 5894
5914 5912 5909 5907 5906 5904 5903 5901 5900 5899 5898 5898 5898 5898 5898 5897 5897 5897 5898 5897 5897 5897 5898 5898 5898 5898 5898 5898 5897 5897 5897 5897 5896 5896 5896 5895 5895 5895 5894 5894 5894 5893 5893
5916 5913 5911 5909 5907 5906 5904 5903 5901 5900 5899 5899 5898 5898 5897 5897 5897 5897 5897 5897 5897 5897 5897 5897 5897 5897 5897 5897 5896 5896 5896 5895 5895 5895 5895 5894 5894 5893 5893 5892 5892 5891 5891
5917 5915 5913 5911 5909 5907 5906 5904 5902 5901 5900 5899 5898 5898 5897 5897 5897 5897 5897 5897 5897 5897 5897 5897 5897 5896 5896 5896 5895 5895 5895 5894 5894 5893 5893 5892 5892 5892 5891 5891 5890 5890 5889
5919 5917 5915 5913 5911 5909 5907 5905 5904 5902 5901 5900 5899 5898 5898 5897 5897 5897 5897 5896 5896 5896 5896 5896 5896 5896 5895 5895 5894 5893 5893 5892 5892 5891 5891 5891 5890 5890 5889 5889 5888 5887 5886
5921 5919 5917 5915 5913 5911 5909 5907 5905 5904 5902 5901 5900 5899 5898 5897 5897 5896 5896 5896 5896 5895 5895 5895 5895 5894 5894 5893 5893 5892 5891 5892 5890 5890 5889 5889 5888 5888 5887 5886 5885 5884 5884
5923 5921 5919 5917 5914 5912 5910 5908 5907 5905 5903 5902 5900 5899 5898 5897 5897 5896 5896 5895 5895 5894 5894 5893 5893 5893 5892 5892 5891 5890 5890 5889 5888 5888 5887 5886 5886 5885 5885 5884 5883 5882 5881
5925 5923 5921 5918 5916 5914 5911 5910 5908 5906 5904 5903 5901 5900 5899 5897 5896 5895 5895 5894 5894 5893 5893 5892 5892 5891 5891 5890 5889 5888 5888 5887 5886 5885 5885 5884 5883 5882 5881 5880 5879 5878 5877
5927 5924 5922 5920 5917 5915 5913 5911 5909 5907 5906 5904 5902 5900 5899 5897 5896 5895 5894 5893 5892 5892 5891 5891 5890 5889 5889 5888 5888 5887 5886 5885 5884 5883 5882 5882 5880 5879 5878 5877 5876 5875 5873
5928 5926 5923 5921 5919 5917 5914 5912 5910 5908 5907 5905 5903 5901 5899 5897 5895 5894 5893 5892 5891 5890 5889 5889 5888 5888 5887 5886 5885 5885 5884 5883 5882 5881 5880 5879 5877 5876 5875 5874 5872 5871 5869